Laurinburg-Maxton, NC

11:05 PM EDT on April 27, 2017 (GMT -0400)
Laurinburg-Maxton

Weather History for KMEB - January, 2013

Change the Weather History Date:

Thursday, January 10, 2013

  Actual Average (KHFF) Record (KHFF)
Temperature  
Mean Temperature 59 °F -  
Max Temperature 70 °F 54 °F 69 °F (2006)
Min Temperature 48 °F 32 °F 16 °F (2015)
Degree Days  
Heating Degree Days 6    
Growing Degree Days 9 (Base 50)    
Moisture  
Dew Point 48 °F    
Average Humidity 75    
Maximum Humidity 97    
Minimum Humidity 38    
Precipitation  
Precipitation 0.00 in - - ()
Sea Level Pressure  
Sea Level Pressure 30.44 in    
Wind  
Wind Speed 3 mph (East)    
Max Wind Speed 10 mph    
Max Gust Speed -    
Visibility 9 miles    
Events Rain    
Averages and records for this station are not official NWS values.
T = Trace of Precipitation, MM = Missing Value Source: NWS Daily Summary

Daily Weather History Graph

Daily Weather History Graph

Search for Another Location

Airport or City:

Trip Planner

Search our weather history database for the weather conditions in past years. The results will help you decide how hot, cold, wet, or windy it might be!

Date:

Astronomy

Jan. 10, 2013 Rise Set
Actual Time 7:25 AM EST 5:25 PM EST
Civil Twilight 6:57 AM EST 5:52 PM EST
Nautical Twilight 6:26 AM EST 6:24 PM EST
Astronomical Twilight 5:56 AM EST 6:54 PM EST
Moon 6:03 AM EST (1/10) 4:30 PM EST (1/10)
Length of Visible Light 10h 55m
Length of Day
9h 59m
Waning Crescent, 2% of the Moon is Illuminated
Jan 10
Waning Crescent
Jan 11
New
Jan 18
First Quarter
Jan 26
Full
Feb 3
Last Quarter

Hourly Weather History & Observations

Time (EST) Temp. Dew Point Humidity Pressure Visibility Wind Dir Wind Speed Gust Speed Precip Events Conditions
12:52 AM 52.0 °F 51.1 °F 97% 30.43 in 8.0 mi Calm Calm - N/A   Clear
1:52 AM 54.0 °F 51.1 °F 90% 30.43 in 10.0 mi Calm Calm - N/A   Clear
2:52 AM 51.1 °F 48.9 °F 92% 30.43 in 9.0 mi Calm Calm - N/A   Clear
3:52 AM 50.0 °F 48.9 °F 96% 30.43 in 9.0 mi Calm Calm - N/A   Clear
4:52 AM 48.9 °F 48.0 °F 97% 30.43 in 8.0 mi Calm Calm - N/A   Clear
5:52 AM 48.9 °F 48.0 °F 97% 30.44 in 7.0 mi Calm Calm - N/A   Clear
6:52 AM 48.0 °F 46.9 °F 96% 30.46 in 9.0 mi Calm Calm - N/A   Clear
7:52 AM 50.0 °F 48.0 °F 93% 30.49 in 8.0 mi ENE 5.8 mph - N/A   Clear
9:52 AM 61.0 °F 48.9 °F 64% 30.51 in 10.0 mi ENE 9.2 mph - N/A   Clear
10:52 AM 63.0 °F 46.0 °F 54% 30.50 in 10.0 mi East 10.4 mph - N/A   Clear
11:52 AM 64.9 °F 42.1 °F 43% 30.46 in 10.0 mi East 10.4 mph - N/A   Clear
2:52 PM 70.0 °F 43.0 °F 38% 30.42 in 10.0 mi NE 8.1 mph - N/A   Clear
3:52 PM 68.0 °F 46.0 °F 45% 30.43 in 10.0 mi East 6.9 mph - N/A   Clear
4:52 PM 64.9 °F 48.0 °F 54% 30.43 in 10.0 mi East 6.9 mph - N/A   Clear
5:52 PM 60.1 °F 48.9 °F 67% 30.43 in 10.0 mi ENE 6.9 mph - N/A   Clear
6:52 PM 57.0 °F 48.0 °F 72% 30.44 in 10.0 mi ENE 5.8 mph - N/A   Clear
7:52 PM 55.9 °F 48.9 °F 77% 30.44 in 10.0 mi East 5.8 mph - N/A   Scattered Clouds
8:52 PM 55.0 °F 48.9 °F 80% 30.43 in 10.0 mi East 3.5 mph - N/A   Overcast
9:52 PM 55.9 °F 50.0 °F 80% 30.42 in 10.0 mi East 5.8 mph - N/A   Overcast
10:52 PM 55.9 °F 46.9 °F 72% 30.42 in 10.0 mi East 9.2 mph - 0.00 in Rain Light Rain
11:52 PM 55.0 °F 43.0 °F 64% 30.41 in 10.0 mi East 6.9 mph - N/A   Overcast